Theta_e
304 302 302 303 303 306 306 305 304 302 301 300 299 297 297 297 296 295 294 293 293 293 293 293 293 293 293 293 293 293 293 293 292 292 292 292 293 293 293 293 292 291 291
304 303 303 304 306 306 305 304 303 301 300 298 297 296 296 295 295 294 294 293 293 293 293 292 292 292 292 292 292 292 292 292 292 292 292 293 292 293 292 291 291 291 290
306 304 304 306 307 306 305 304 302 301 299 297 295 295 295 294 294 294 293 293 293 293 292 292 292 292 292 292 292 292 292 292 292 292 292 293 292 292 291 291 291 291 291
305 305 306 308 307 306 304 303 301 300 298 296 295 295 294 294 294 293 293 292 292 292 291 291 291 291 291 291 291 291 291 291 291 291 291 291 291 293 292 290 290 290 290
306 306 309 308 307 306 304 303 301 299 297 295 294 294 294 294 293 293 292 291 291 290 290 290 290 290 290 290 290 290 290 290 290 291 290 290 290 290 291 291 290 289 289
306 308 309 308 307 305 304 302 301 298 296 294 294 294 293 293 293 292 291 290 290 290 289 289 289 289 289 289 289 289 289 289 289 289 289 289 289 289 289 291 289 289 288
307 309 309 308 306 305 304 302 300 297 295 294 294 293 293 293 292 291 291 290 290 290 289 288 288 288 288 288 288 287 287 288 288 288 288 288 288 288 288 288 288 288 287
309 311 310 308 306 305 303 302 299 296 294 294 293 293 293 292 292 291 291 290 290 290 289 288 288 288 288 287 287 287 287 288 288 288 287 287 287 286 286 286 287 288 287
313 311 309 307 307 304 303 301 297 295 294 294 293 293 293 292 292 291 291 291 290 290 289 288 288 287 287 287 287 286 287 287 286 286 286 286 286 286 286 285 285 286 287
312 310 308 308 305 303 302 300 296 295 294 293 293 293 293 292 292 291 291 291 290 290 288 288 287 287 287 286 286 287 286 285 286 287 288 287 287 286 286 285 285 286 287
312 311 309 308 305 303 301 298 295 295 294 293 293 293 293 292 291 291 291 290 290 289 288 287 287 287 286 286 286 286 285 286 286 286 287 287 286 287 286 286 286 286 287
312 310 308 306 305 302 299 296 295 294 293 293 293 293 292 292 291 291 290 290 289 288 287 287 287 287 287 286 285 284 285 285 285 285 286 286 286 286 286 287 286 286 286
311 309 308 306 304 300 297 295 294 293 293 292 292 292 292 291 291 291 290 289 288 288 287 288 288 287 286 286 284 283 284 284 284 285 286 286 285 286 286 286 287 287 287
310 310 307 305 301 297 295 294 293 293 292 292 292 291 291 291 291 290 290 289 288 288 288 288 287 287 286 285 283 283 283 284 285 285 285 285 285 286 286 286 286 286 287
310 309 307 304 298 296 295 293 293 292 292 291 291 291 290 290 290 290 289 289 288 288 288 287 287 287 286 284 283 282 282 284 284 284 285 285 285 284 284 284 284 285 285
310 308 304 299 296 295 294 293 293 292 291 291 291 290 290 290 290 289 289 289 288 288 287 287 287 286 286 283 283 282 283 284 284 284 284 285 284 284 282 283 283 283 284
309 306 301 297 296 294 293 293 293 292 291 291 290 290 290 290 289 289 289 288 288 287 287 286 286 286 286 283 282 281 283 283 283 283 283 284 283 282 282 281 281 282 283
308 303 298 296 295 294 293 293 292 291 291 291 290 290 290 289 289 289 288 288 288 287 287 286 286 286 286 283 282 282 283 283 282 282 282 282 281 281 280 281 281 282 284
304 299 297 295 294 293 293 292 292 291 291 290 290 290 289 288 289 289 288 288 288 287 287 286 287 286 286 284 282 282 283 283 283 282 282 282 281 280 280 280 281 282 283
298 297 295 294 294 293 292 292 291 291 291 290 290 289 289 288 288 288 288 287 287 287 287 287 287 286 285 284 282 281 282 282 282 283 282 282 281 281 280 280 280 282 283
297 295 295 294 293 292 292 291 291 291 290 290 290 289 288 288 288 288 287 287 287 287 286 286 286 285 284 282 281 280 281 281 281 281 282 282 282 281 280 279 280 280 280
296 295 294 293 292 292 291 291 290 290 290 290 290 289 289 288 287 287 287 286 286 286 285 285 285 284 283 281 280 280 280 280 280 280 281 281 280 282 281 280 279 280 281
295 294 293 292 291 291 291 291 290 290 290 290 290 289 288 288 287 287 286 284 284 283 284 283 284 283 282 281 280 280 280 279 279 280 280 280 280 280 281 281 281 281 282
294 294 293 292 292 291 290 290 290 290 290 290 290 289 288 289 288 286 285 284 282 281 281 281 282 281 281 280 279 279 280 279 279 280 280 279 279 279 279 280 281 281 282
294 293 293 292 291 291 291 291 290 290 290 290 289 289 289 289 289 288 287 284 284 281 280 280 280 280 280 279 279 279 280 279 279 280 280 279 278 279 278 279 280 281 281
294 293 292 289 290 290 290 290 290 289 290 290 289 288 289 289 288 288 287 286 285 283 281 280 279 279 279 279 279 279 279 279 279 280 279 279 278 278 278 278 278 279 280
Wind_Speed
12 10 10 8 7 7 9 11 12 14 15 14 15 15 14 13 12 13 14 15 16 17 18 18 18 19 19 19 19 20 21 20 21 21 23 21 22 15 11 14 19 12 16
9 10 9 7 7 9 9 10 12 13 15 15 15 15 13 13 12 14 15 16 16 17 17 18 19 19 20 20 20 20 22 21 21 20 21 11 17 21 12 18 15 16 13
11 9 8 8 9 8 8 10 12 13 14 16 15 15 14 14 15 16 17 18 17 17 17 18 19 20 20 21 21 21 22 22 24 22 18 10 10 17 24 22 22 20 20
10 10 9 9 8 7 8 9 11 13 14 14 15 16 15 16 16 17 18 18 18 18 18 19 20 20 20 21 21 22 23 24 23 23 22 21 21 10 11 22 23 23 21
9 9 8 9 7 6 7 9 10 12 13 13 14 15 15 15 16 18 19 19 18 18 19 20 21 20 20 21 22 23 23 23 24 21 22 22 21 21 14 12 18 24 23
9 9 9 7 8 6 7 8 10 11 11 13 13 14 14 15 17 20 20 21 20 20 20 23 21 21 21 22 23 23 24 23 23 22 22 21 18 17 15 10 14 16 23
10 10 9 8 6 6 7 9 10 11 12 13 14 14 14 15 17 19 20 21 22 22 23 24 23 22 23 23 23 23 24 23 21 20 21 20 19 19 18 18 17 13 21
11 8 8 6 5 5 6 10 11 12 12 14 14 14 14 16 17 19 20 21 22 23 25 24 23 23 23 23 23 24 22 21 20 20 19 20 19 18 17 15 15 11 11
11 10 8 6 5 4 8 10 11 12 13 14 14 15 15 16 18 19 20 22 23 25 25 23 23 23 23 23 24 23 23 21 22 22 21 20 18 17 16 16 17 15 10
11 10 7 6 5 4 6 8 11 12 13 14 14 15 16 17 19 20 22 23 24 24 24 24 23 24 24 23 23 23 24 24 25 23 21 19 17 16 15 15 19 20 17
10 9 7 6 4 5 7 10 11 13 13 13 14 16 18 18 19 21 23 24 24 25 24 24 24 24 24 24 23 27 28 27 26 25 20 18 19 17 16 17 17 19 18
10 9 7 5 6 7 8 10 11 12 13 14 15 16 18 19 20 22 23 24 24 24 23 23 23 24 24 24 25 30 30 30 29 25 21 19 18 17 17 17 18 19 19
10 8 8 6 4 6 8 10 11 12 13 14 16 17 19 20 21 23 23 24 24 24 23 23 24 25 25 23 27 31 32 34 28 23 21 19 17 18 18 18 18 18 19
9 10 6 4 7 7 8 10 11 12 14 15 16 18 19 21 22 23 23 24 24 23 23 23 24 25 27 21 31 34 37 31 25 23 19 18 18 18 16 15 18 20 21
8 7 5 7 6 6 7 9 10 12 14 16 17 18 20 20 21 22 23 23 23 23 24 24 25 26 26 22 35 36 35 29 26 23 22 20 16 18 19 18 16 17 19
9 7 8 7 7 7 7 8 10 13 14 16 17 18 20 21 21 22 23 23 23 24 24 25 26 27 25 31 35 38 37 28 25 26 23 18 16 15 18 20 17 16 19
9 9 8 8 6 7 7 9 10 12 14 16 17 19 20 20 21 21 22 24 24 24 25 26 27 27 26 32 39 44 32 28 29 27 23 19 15 17 15 19 23 24 25
11 11 9 8 6 6 8 8 10 12 14 16 17 19 20 20 20 21 22 23 24 25 26 27 27 28 28 35 42 42 32 30 31 26 23 18 20 18 23 23 22 21 20
13 12 10 8 7 7 8 9 10 12 14 16 17 19 19 19 20 22 22 23 24 25 26 27 28 30 31 36 42 43 35 32 33 28 25 23 22 27 25 20 18 17 16
15 13 11 9 8 7 8 9 11 13 15 16 17 17 18 18 19 21 22 23 23 24 25 27 28 30 32 36 42 43 36 35 36 30 27 24 26 30 23 18 15 14 12
16 14 11 10 8 7 8 9 11 13 14 14 15 17 17 17 19 20 21 23 23 24 26 28 29 31 33 36 41 42 37 36 36 32 33 33 31 27 21 17 14 14 14
17 13 12 10 8 7 8 9 11 11 12 14 14 16 16 17 19 20 22 24 26 26 29 30 31 32 34 36 43 44 40 40 36 36 35 35 37 27 20 17 16 13 11
16 14 13 11 9 9 9 9 10 10 12 13 14 15 15 16 18 21 22 25 26 28 28 29 30 33 36 39 44 43 41 43 40 37 36 35 32 31 23 22 19 14 12
17 15 13 11 9 9 9 8 9 8 9 11 12 13 14 14 15 19 21 21 25 25 27 27 28 31 34 39 44 43 40 43 41 38 35 35 33 32 30 26 24 19 16
17 14 13 11 9 8 8 8 9 9 9 10 12 12 12 13 13 12 13 17 17 18 20 23 26 29 33 38 41 42 39 43 41 36 34 34 35 34 33 32 29 25 23
18 16 14 12 9 7 7 7 8 9 8 9 11 11 12 12 13 13 13 14 20 18 18 28 28 29 30 35 40 42 37 41 41 36 37 36 35 34 33 31 30 28 27
Wind_Direction
121 120 113 100 101 92 63 42 33 20 8 6 1 355 351 345 345 344 344 340 338 336 333 330 326 325 323 320 314 312 313 314 314 313 314 315 306 307 272 281 315 305 304
133 130 114 111 105 78 59 40 26 20 13 4 360 353 346 343 345 344 340 340 335 333 330 330 327 324 318 314 313 314 308 311 311 311 310 314 318 307 336 317 307 300 300
137 127 129 134 97 75 53 36 25 19 13 5 2 356 350 349 351 345 343 340 336 332 329 327 326 322 316 316 314 312 309 310 309 304 302 309 302 308 303 303 299 300 291
144 135 150 114 91 75 52 32 21 16 13 8 3 357 354 351 347 345 342 336 336 334 331 331 328 322 320 315 317 316 313 307 304 308 303 300 298 301 305 298 295 289 291
143 153 137 110 87 73 56 27 15 14 9 5 3 358 357 349 346 346 340 341 338 337 336 335 329 326 323 322 319 315 313 307 303 305 309 305 302 294 295 295 299 297 294
156 160 124 120 85 62 42 22 13 14 7 3 1 1 356 349 347 348 344 342 341 339 338 336 332 330 328 326 322 318 312 311 311 310 309 309 306 302 304 299 298 297 297
163 163 156 102 84 61 39 9 13 15 7 2 1 360 356 351 346 347 344 339 341 340 339 337 334 332 330 327 324 320 316 311 314 310 306 304 308 308 306 300 296 294 295
182 150 114 114 104 71 33 15 10 12 6 2 360 358 355 350 347 346 342 340 338 336 336 335 333 332 330 328 325 321 315 320 321 312 306 301 299 294 292 285 292 292 287
168 134 124 122 88 62 39 18 8 10 6 1 359 356 350 348 344 343 342 339 337 335 337 334 333 332 332 331 329 322 319 329 315 304 297 290 287 284 276 272 269 274 285
145 131 132 109 75 41 42 16 7 7 3 360 357 354 348 345 342 341 341 339 338 337 335 334 335 335 336 334 328 325 326 320 311 304 294 287 284 282 269 267 267 263 267
144 130 125 96 77 28 25 15 10 3 2 358 354 352 348 343 343 342 341 341 339 338 337 337 338 338 336 334 331 332 331 327 316 311 303 298 289 277 271 262 264 268 264
134 129 109 99 62 32 18 19 8 2 1 356 353 352 347 345 344 344 343 343 340 340 340 341 340 339 336 335 340 334 331 326 318 309 306 300 294 283 276 267 262 263 265
124 126 90 59 55 42 18 14 10 5 359 355 353 354 349 347 345 346 345 343 343 343 344 344 342 341 337 336 344 334 329 325 318 314 311 302 294 284 279 276 269 266 264
144 107 116 99 60 39 25 14 13 5 359 358 356 356 352 349 348 347 346 345 346 345 346 345 345 343 340 346 343 335 332 326 317 316 310 302 294 288 288 281 280 278 272
138 117 102 81 68 40 27 18 11 5 1 360 358 355 352 350 351 349 347 348 349 349 348 348 347 346 345 352 347 340 333 326 325 321 315 307 302 295 289 281 280 286 287
125 117 99 85 67 43 23 18 11 7 3 2 359 355 352 353 354 350 350 352 351 353 351 351 349 351 349 347 352 346 336 334 333 328 323 320 312 307 307 291 283 278 275
123 116 98 87 70 52 28 19 12 6 4 3 359 356 356 355 356 353 356 356 355 354 354 352 353 352 352 358 356 349 343 342 338 333 331 328 325 319 313 311 297 282 267
121 112 106 102 77 51 29 19 13 9 7 4 360 359 358 359 358 358 0 358 357 356 354 353 353 354 355 358 1 353 349 348 345 339 336 335 327 322 317 304 293 282 271
117 112 111 101 79 49 33 23 15 13 10 5 2 2 2 2 0 2 1 360 358 358 358 356 356 356 354 355 0 355 349 346 346 343 343 340 334 328 324 314 300 292 281
121 121 113 102 79 53 42 30 22 16 12 5 4 5 6 6 5 4 4 3 2 2 2 360 0 360 357 357 359 355 348 343 340 338 335 330 337 337 337 331 312 303 315
122 122 111 96 77 60 45 39 27 21 11 7 9 12 13 12 10 10 10 9 8 8 8 5 5 4 0 358 357 356 353 352 341 342 341 344 341 340 347 347 339 323 306
130 122 113 97 77 60 53 45 33 20 15 13 15 19 19 19 17 18 17 17 14 13 11 7 5 2 0 357 355 355 356 354 350 345 345 352 352 348 357 2 1 360 347
131 126 116 105 85 68 56 47 29 21 18 18 22 26 25 28 26 25 23 23 19 15 10 7 2 356 355 355 354 354 357 357 355 349 350 356 356 2 3 10 10 9 5
135 130 124 115 97 77 62 47 28 21 27 29 30 32 31 29 33 34 31 27 23 19 16 10 2 354 352 352 352 352 355 356 356 355 356 2 6 11 10 10 14 16 8
138 137 128 119 99 84 65 46 32 30 40 41 39 37 33 30 29 26 28 25 14 16 16 11 3 354 352 350 352 354 358 359 357 358 3 9 12 12 11 9 9 14 11
143 137 128 126 113 95 77 56 46 42 45 49 47 35 37 32 26 21 16 6 10 7 17 9 3 356 356 357 359 360 4 6 7 8 9 10 12 11 9 8 4 4 5